Overview Statistics Trail Chart Weather Telemetry Raw packets
 

This is the latest recevied weather packets stored in our database for station/object N6GPM. If no packets are shown the sender has not sent any weather packets the latest 10 day(s).

<< 75 76 77 78 79 80 81 >>
Time Temp. Humidity Pressure Rain* Wind** Luminosity Snow
1788140030 30° C 39% 1015.3 hPa 0 mm - 54 W/m² -
1788139725 30° C 37% 1015.2 hPa 0 mm - 64 W/m² -
1788139420 30° C 36% 1015 hPa 0 mm - 74 W/m² -
1788139120 30° C 36% 1015 hPa 0 mm - 86 W/m² -
1788138814 30.56° C 34% 1015 hPa 0 mm - 101 W/m² -
1788138505 30.56° C 34% 1015.2 hPa 0 mm - 113 W/m² -
1788138205 30.56° C 34% 1014.8 hPa 0 mm - 129 W/m² -
1788137900 30.56° C 36% 1014.8 hPa 0 mm - 144 W/m² -
1788137596 30.56° C 35% 1014.9 hPa 0 mm - 160 W/m² -
1788137290 31.11° C 35% 1014.9 hPa 0 mm - 173 W/m² -
1788136987 31.67° C 35% 1014.8 hPa 0 mm - 192 W/m² -
1788136682 31.11° C 37% 1014.8 hPa 0 mm - 212 W/m² -
1788136378 31.11° C 36% 1014.8 hPa 0 mm - 232 W/m² -
1788136077 31.11° C 37% 1015 hPa 0 mm - 247 W/m² -
1788135777 31.67° C 36% 1015 hPa 0 mm - 272 W/m² -
1788135473 31.11° C 37% 1015.2 hPa 0 mm - 290 W/m² -
1788135167 31.11° C 37% 1014.9 hPa 0 mm - 312 W/m² -
1788134864 31.67° C 38% 1014.8 hPa 0 mm - 333 W/m² -
1788134559 31.67° C 37% 1015 hPa 0 mm - 363 W/m² -
1788134258 31.67° C 37% 1014.9 hPa 0 mm - 382 W/m² -
1788133953 31.67° C 35% 1014.7 hPa 0 mm - 396 W/m² -
1788133648 32.22° C 36% 1015 hPa 0 mm - 423 W/m² -
1788133344 31.67° C 37% 1014.8 hPa 0 mm - 438 W/m² -
1788133040 32.22° C 37% 1014.8 hPa 0 mm - 463 W/m² -
1788132735 32.22° C 38% 1014.8 hPa 0 mm - 475 W/m² -

* Rain latest hour (hover to see other rain measurements)
** Current wind speed in m/s (hover to see current wind gust speed)